Spokane Fairchild, WA
on Monday, November 5, 2012

Monday
Previous Day Next Day
Daily Summary
 ActualAverage (KGEG)Record (KGEG)
Temperature
Mean Temperature °F 40°F  
Max Temperature 56°F 47°F 64°F (1934)
Min Temperature 39°F 33°F 11°F (2003)
Degree Days
Heating Degree Days 18 25  
Month to date heating degree days 123  
Since 1 July heating degree days 911  
Cooling Degree Days 0 0  
Month to date cooling degree days 0  
Year to date cooling degree days 450  
Moisture
Dew Point 48°F   
Average Humidity 100    
Maximum Humidity 100    
Minimum Humidity 100    
Precipitation
Precipitation 0.00 in 0.07 in 0.82 in (1913)
Month to date precipitation 0.32  
Year to date precipitation 12.28  
Snow
Snow 0.00 in 0.10 in 1.80 in (1947)
Month to date snowfall 0.4  
Since 1 July snowfall 0.5  
Since 1 September snowfall 0.5  
Snow Depth in   
Wind
Wind Speed 10 mph   
Max Wind Speed 23 mph   
Max Gust Speed 29 mph   
Visibility 7 miles   
Events Fog   

Key: T is trace of precipitation, MM is missing value
Source: NWS Daily Summary
Time(PST)TemperatureDew PointHumidity Pressure Visibility Wind DirectionWind SpeedGust SpeedPrecipitationEvents Conditions
12:55 AM 52.5°F 52.5°F 100% 30.25 in 10.0 miles South 8.1 mph - N/A   Overcast
1:55 AM 52.0°F 52.0°F 100% 30.22 in 10.0 miles South 13.8 mph - N/A   Clear
2:55 AM 52.2°F 52.2°F 100% 30.20 in 10.0 miles South 18.4 mph 25.3 mph N/A   Clear
3:55 AM 51.4°F 51.4°F 100% 30.18 in 10.0 miles South 18.4 mph 23.0 mph N/A   Mostly Cloudy
4:14 AM 51.8°F 51.8°F 100% 30.17 in 10.0 miles South 17.3 mph - N/A   Mostly Cloudy
4:55 AM 51.4°F 51.4°F 100% 30.19 in 10.0 miles South 20.7 mph 25.3 mph N/A   Scattered Clouds
5:18 AM 51.8°F 51.8°F 100% 30.19 in 10.0 miles South 18.4 mph 23.0 mph N/A   Overcast
5:35 AM 51.8°F 51.8°F 100% 30.20 in 10.0 miles South 15.0 mph 21.9 mph N/A   Overcast
5:41 AM 51.8°F 51.8°F 100% 30.20 in 10.0 miles South 18.4 mph 23.0 mph N/A   Overcast
5:47 AM 51.8°F 51.8°F 100% 30.20 in 10.0 miles South 18.4 mph - N/A   Overcast
5:55 AM 51.6°F 51.6°F 100% 30.19 in 10.0 miles South 18.4 mph - N/A   Overcast
5:57 AM 51.8°F 51.8°F 100% 30.19 in 10.0 miles South 18.4 mph - N/A   Overcast
6:02 AM 51.8°F 51.8°F 100% 30.19 in 10.0 miles South 21.9 mph 28.8 mph N/A   Overcast
6:55 AM 52.0°F 52.0°F 100% 30.21 in 10.0 miles SSW 16.1 mph 23.0 mph N/A   Overcast
7:06 AM 51.8°F 51.8°F 100% 30.21 in 10.0 miles South 23.0 mph 27.6 mph N/A   Overcast
7:13 AM 51.8°F 51.8°F 100% 30.22 in 10.0 miles SSW 15.0 mph 27.6 mph N/A   Overcast
7:32 AM 51.8°F 51.8°F 100% 30.22 in 10.0 miles SSW 16.1 mph 20.7 mph N/A   Overcast
7:55 AM 52.5°F 52.5°F 100% 30.23 in 10.0 miles SSW 16.1 mph 24.2 mph N/A   Overcast
8:55 AM 53.2°F 53.2°F 100% 30.25 in 10.0 miles South 12.7 mph - N/A   Overcast
9:11 AM 53.6°F 53.6°F 100% 30.25 in 10.0 miles SSW 16.1 mph - N/A   Overcast
9:55 AM 53.8°F 53.8°F 100% 30.25 in 10.0 miles SSW 11.5 mph - N/A   Partly Cloudy
10:19 AM 53.6°F 53.6°F 100% 30.27 in 10.0 miles South 10.4 mph - N/A   Mostly Cloudy
10:55 AM 55.0°F 55.0°F 100% 30.27 in 10.0 miles SSW 11.5 mph - N/A   Overcast
11:55 AM 55.6°F 55.6°F 100% 30.27 in 10.0 miles SSW 8.1 mph - N/A   Overcast
12:55 PM 56.1°F 56.1°F 100% 30.26 in 6.2 miles SSW 11.5 mph - N/A   Mostly Cloudy
1:55 PM 56.3°F 56.3°F 100% 30.26 in 10.0 miles SSW 8.1 mph - N/A   Scattered Clouds
2:58 PM 55.6°F 55.6°F 100% 30.25 in 10.0 miles SSW 9.2 mph - N/A   Partly Cloudy
3:58 PM 52.9°F 52.9°F 100% 30.26 in 10.0 miles WSW 2.3 mph - N/A   Clear
4:58 PM 50.4°F 50.4°F 100% 30.24 in 10.0 miles South 4.6 mph - N/A   Clear
5:58 PM 49.1°F 49.1°F 100% 30.24 in 10.0 miles WSW 2.3 mph - N/A   Overcast
6:58 PM 47.8°F 47.8°F 100% 30.23 in 10.0 miles Calm Calm - N/A   Mostly Cloudy
7:58 PM 45.1°F 45.1°F 100% 30.24 in 10.0 miles ENE 2.3 mph - N/A   Clear
8:05 PM 42.8°F 42.8°F 100% 30.23 in 10.0 miles SE 4.6 mph - N/A   Clear
8:19 PM 39.2°F 39.2°F 100% 30.23 in 3.0 miles SE 4.6 mph - N/A   Clear
8:24 PM 41.0°F 41.0°F 100% 30.23 in 3.0 miles SE 3.5 mph - N/A   Partly Cloudy
8:49 PM 44.6°F 44.6°F 100% 30.23 in 10.0 miles South 2.3 mph - N/A   Light Drizzle
8:58 PM 43.5°F 43.5°F 100% 30.24 in 10.0 miles South 3.5 mph - 0.00 in   Light Drizzle
9:07 PM 44.6°F 44.6°F 100% 30.23 in 10.0 miles SW 3.5 mph - N/A   Clear
9:17 PM 44.6°F 44.6°F 100% 30.22 in 1.5 miles SW 2.3 mph - N/A   Clear
9:22 PM 44.6°F 44.6°F 100% 30.22 in 4.0 miles SW 2.3 mph - N/A   Clear
9:32 PM 44.6°F 44.6°F 100% 30.22 in 0.8 miles South 2.3 mph - N/A   Clear
9:37 PM 44.6°F 44.6°F 100% 30.22 in 3.0 miles South 2.3 mph - N/A   Clear
9:52 PM 44.6°F 44.6°F 100% 30.22 in 0.5 miles South 1.2 mph - N/A Fog Fog
9:58 PM 44.2°F 44.2°F 100% 30.22 in 3.0 miles Calm Calm - N/A   Scattered Clouds
10:03 PM 44.6°F 44.6°F 100% 30.21 in 3.0 miles SW 1.2 mph - N/A   Scattered Clouds
10:28 PM 44.6°F 44.6°F 100% 30.21 in 0.8 miles SE 3.5 mph - N/A   Scattered Clouds
10:33 PM 44.6°F 44.6°F 100% 30.21 in 3.0 miles ESE 2.3 mph - N/A   Scattered Clouds
10:38 PM 44.6°F 44.6°F 100% 30.21 in 3.0 miles Calm Calm - N/A   Scattered Clouds
10:43 PM 44.6°F 44.6°F 100% 30.21 in 0.5 miles South 2.3 mph - N/A Fog Fog
10:48 PM 44.6°F 44.6°F 100% 30.21 in 1.0 miles South 2.3 mph - N/A   Partly Cloudy
10:53 PM 42.8°F 42.8°F 100% 30.21 in 1.2 miles SSW 2.3 mph - N/A   Partly Cloudy
10:58 PM 43.5°F 43.5°F 100% 30.21 in 1.8 miles South 3.5 mph - N/A   Partly Cloudy
11:00 PM 42.8°F 42.8°F 100% 30.21 in 1.0 miles SSE 3.5 mph - N/A   Partly Cloudy
11:05 PM 42.8°F 42.8°F 100% 30.21 in 1.2 miles SE 2.3 mph - N/A   Clear
11:10 PM 41.0°F 41.0°F 100% 30.20 in 1.5 miles Calm Calm - N/A   Clear
11:15 PM 41.0°F 41.0°F 100% 30.21 in 1.2 miles Calm Calm - N/A   Clear
11:20 PM 41.0°F 41.0°F 100% 30.21 in 2.5 miles Calm Calm - N/A   Clear
11:25 PM 41.0°F 41.0°F 100% 30.21 in 9.0 miles East 2.3 mph - N/A   Clear
11:40 PM 42.8°F 42.8°F 100% 30.21 in 1.2 miles East 1.2 mph - N/A   Clear
11:45 PM 41.0°F 41.0°F 100% 30.21 in 0.5 miles Calm Calm - N/A Fog Fog
11:55 PM 41.0°F 41.0°F 100% 30.20 in 4.0 miles East 1.2 mph - N/A   Clear
11:58 PM 41.0°F 41.0°F 100% 30.23 in 0.8 miles East 1.2 mph - 0.00 in   Clear
Moon Phase
Nov. 05 Nov. 06 Nov. 13 Nov. 20 Nov. 28
Sunrise:06:41 AM (PST) Moon Rise:10:09 PM (PST)11/5
Sunset:04:26 PM (PST) Moon Set:12:04 PM (PST)11/5

Copyright © 2014 The Weather Underground, Inc.